Regional Weather Roundup
Issued by NWS Little Rock, AR

Home | Current Version | Previous Version | Graphics & Text | Print | Product List | Glossary On
Versions: 1 2 3 4 5 6 7 8 9 10 11 12 13 14 15 16 17 18 19 20 21 22 23 24 25 26 27 28 29 30 31 32 33 34 35 36 37 38 39 40 41 42 43 44 45 46 47 48 49 50
000
ASUS44 KLZK 140805
RWRLZK

WEATHER ROUNDUP FOR ARKANSAS
NATIONAL WEATHER SERVICE LITTLE ROCK AR
200 AM CST SUN FEB 14 2016

NOTE: "FAIR" INDICATES FEW OR NO CLOUDS BELOW 12,000 FEET WITH NO
SIGNIFICANT WEATHER AND/OR OBSTRUCTIONS TO VISIBILITY.

ARZ001-003-010-029-140900-
NORTHWEST ARKANSAS

CITY           SKY/WX    TMP DP  RH WIND       PRES   REMARKS
FAYETTEVILLE   CLOUDY    36  17  46 SE8       30.08F
FORT SMITH     CLOUDY    35  12  38 E16       30.15F WCI  25
HARRISON       CLOUDY    28  10  46 SE16      30.15F WCI  16
BENTONVILLE    CLOUDY    36  12  38 SE12G20   30.07F
ROGERS         CLOUDY    35  12  38 SE16      30.06F WCI  25
SILOAM SPGS    CLOUDY    37  10  32 SE15G22   30.06F
HIGHFILL       CLOUDY    36  14  40 SE17      30.06F
$$

ARZ004-005-016-140900-
NORTH CENTRAL ARKANSAS

CITY           SKY/WX    TMP DP  RH WIND       PRES   REMARKS
BATESVILLE     CLOUDY    27  10  50 E3        30.32F
FLIPPIN        CLOUDY    27   7  43 SE10      30.21F WCI  17
MTN HOME       CLOUDY    24   7  48 SE13G21   30.21F WCI  12
$$

ARZ040-041-140900-
WEST CENTRAL ARKANSAS

CITY           SKY/WX    TMP DP  RH WIND       PRES   REMARKS
MENA           CLOUDY    43  19  39 NE5       30.14F
MOUNT IDA      CLOUDY    37  14  38 VRB6      30.15F
$$

ARZ009-017-025-026-028-140900-
NORTHEAST ARKANSAS

CITY           SKY/WX    TMP DP  RH WIND       PRES   REMARKS
JONESBORO      CLOUDY    27  15  61 NE10      30.33F WCI  17
NEWPORT        CLOUDY    28  12  51 NE12      30.33F WCI  18
WALNUT RIDGE   CLOUDY    27  10  50 E7        30.34F WCI  19
BLYTHEVILLE    CLOUDY    28  14  55 E6        30.35R WCI  22
$$

ARZ022-023-033-042-044-140900-
CENTRAL ARKANSAS

CITY           SKY/WX    TMP DP  RH WIND       PRES   REMARKS
LITTLE ROCK    CLOUDY    33  14  45 E10       30.27F WCI  25
N LITTLE ROCK    N/A     32  16  51 E10       30.27F WCI  24
JACKSONVILLE   CLOUDY    32  13  45 NE7       30.27S WCI  26
SEARCY         CLOUDY    30  16  55 NE12      30.31S WCI  21
HOT SPRINGS    CLOUDY    36  15  42 E6        30.22F
RUSSELLVILLE   CLOUDY    32  11  41 E6        30.24F WCI  26
CLINTON        CLOUDY    30  10  43 CALM      30.29F
$$

ARZ036-140900-
EAST ARKANSAS

CITY           SKY/WX    TMP DP  RH WIND       PRES   REMARKS
WEST MEMPHIS   CLOUDY    31  10  41 E7        30.31R WCI  24
$$

ARZ050-053-066-070-073-140900-
SOUTHWEST ARKANSAS

CITY           SKY/WX    TMP DP  RH WIND       PRES   REMARKS
ARKADELPHIA    CLOUDY    38  18  44 E5        30.23F
CAMDEN         CLOUDY    39  12  33 CALM      30.22S
TEXARKANA      CLOUDY    42  20  41 VRB5      30.18F
EL DORADO      CLOUDY    41  19  41 E7        30.19F
DE QUEEN       CLOUDY    42  20  41 E8        30.16F
$$

ARZ056-057-069-140900-
SOUTHEAST ARKANSAS

CITY           SKY/WX    TMP DP  RH WIND       PRES   REMARKS
PINE BLUFF     CLOUDY    36  17  46 E8        30.24F
STUTTGART      CLOUDY    34  16  47 NE10      30.27S WCI  26
MONTICELLO     MOCLDY    38  17  42 E5        30.22F

$$





USA.gov is the U.S. government's official web portal to all federal, state and local government web resources and services.